This demonstration page uses our WeatherBlox Daily Observations layout. Learn more.

Left ArrowRight Arrow

39.01783, -85.05884

Hourly Observations for June 10, 2015

Temp ( °F °C ) Dew Point ( °F °C ) Humidity (%) Winds ( mph kmh ) Pressure ( in mb ) Visibility ( mi km ) Precip ( " mm )
12:52 am 00:52 Clear with Mist and Fog 64 17.8 60 15.6 87 87 N N/A 29.87 1012 6 10 N/A
1:52 am 01:52 Hazy 65 18.3 59 15 81 81 N N/A 29.87 1011 6 10 N/A
2:52 am 02:52 Clear with Mist and Fog 61 16.1 59 15 93 93 S 3 6 29.86 1011 5 8 N/A
3:52 am 03:52 Clear with Mist and Fog 59 15 57 13.9 93 93 S 6 9 29.86 1011 5 8 N/A
4:52 am 04:52 Clear with Mist and Fog 60 15.6 58 14.4 93 93 S 6 9 29.86 1011 6 10 N/A
5:52 am 05:52 Clear with Mist and Fog 59 15 58 14.4 96 96 S 5 7 29.86 1011 4 6 N/A
6:52 am 06:52 Sunny with Mist and Fog 62 16.7 58 14.4 86 86 N N/A 29.87 1012 6 10 N/A
7:52 am 07:52 Sunny 67 19.4 60 15.6 79 79 SSW 6 9 29.87 1011 7 11 N/A
8:52 am 08:52 Sunny 74 23.3 60 15.6 62 62 SW 8 13 29.88 1012 8 13 N/A
9:52 am 09:52 Sunny 78 25.6 61 16.1 56 56 SW 8 13 29.88 1012 8 13 N/A
10:52 am 10:52 Sunny 82 27.8 61 16.1 49 49 SW 9 15 29.88 1012 9 14 N/A
11:52 am 11:52 Sunny 85 29.4 60 15.6 43 43 SW 10 17 29.88 1012 10 16 N/A
12:52 pm 12:52 Mostly Sunny 88 31.1 60 15.6 39 39 WSW 9 15 29.87 1012 9 14 N/A
1:52 pm 13:52 Mostly Sunny 89 31.7 58 14.4 35 35 W 8 13 29.86 1011 10 16 N/A
2:52 pm 14:52 Mostly Sunny 90 32.2 59 15 35 35 SW 12 19 29.84 1011 10 16 N/A
3:52 pm 15:52 Partly Cloudy 89 31.7 57 13.9 34 34 SSW 10 17 29.84 1010 10 16 N/A
4:52 pm 16:52 Partly Cloudy 90 32.2 58 14.4 34 34 SW 7 11 29.83 1010 10 16 N/A
5:52 pm 17:52 Partly Cloudy 89 31.7 57 13.9 34 34 WSW 9 15 29.83 1010 10 16 N/A
6:52 pm 18:52 Partly Cloudy 88 31.1 57 13.9 35 35 SW 9 15 29.83 1010 10 16 N/A
7:52 pm 19:52 Partly Cloudy 85 29.4 61 16.1 45 45 SSW 7 11 29.82 1010 9 14 N/A
8:52 pm 20:52 Partly Cloudy 81 27.2 61 16.1 51 51 SSW 6 9 29.82 1010 8 13 N/A
9:52 pm 21:52 Partly Cloudy 77 25 61 16.1 58 58 S 6 9 29.83 1010 10 16 N/A
10:52 pm 22:52 Partly Cloudy 76 24.4 61 16.1 60 60 SSW 8 13 29.85 1011 10 16 N/A
11:52 pm 23:52 Partly Cloudy 73 22.8 60 15.6 64 64 S 3 6 29.87 1012 10 16 N/A

Powered by AerisWeather